Location: Saluda
(35.2377°N, 82.3468°W)
Time: 17:24:24
(UTC+00:00)

Transit 2A - Pass Details

Date: 10 October 2022
Orbit: 598 x 959 km, 66.7° (Epoch: 06 December)

Event Time Altitude Azimuth Distance (km) Brightness Sun altitude
Rises 01:32:23 0° 180° (S) 2,961 - -31.3°
Reaches altitude 10° 01:34:58 10° 169° (S) 2,010 - -31.8°
Maximum altitude 01:38:47 28° 110° (ESE) 1,159 - -32.6°
Drops below altitude 10° 01:42:28 10° 52° (NE) 1,943 - -33.3°
Sets 01:44:55 0° 40° (NE) 2,843 - -33.8°
